x

Portage Canal, Mi (pclm4) Weather Station

12:40pm - Sun 22nd Jan 2017 All times are CST. -6 hours from GMT.

  • Wind
    3mph, 8mph gusts
  • Air Temp 34°f
  • Sea Pressure 1004.1mb
  • Portage Canal, Mi
  • Portage Canal, Mi

More Historic Weather Station data

Upgrade to MSW Pro to gain access to the past 30 days of data for over 8000 Wavebouys and Weather Stations around the globe.

Join Pro

Comparision Forecast

View Surf forecast
   
Sun 01/22 12:40pm 3 8 mph 1004.1mb 34f
12:30pm 5 9 mph 1004.4mb 34f
12:20pm 6 9 mph 1004.4mb 34f
12:10pm 3 7 mph 1004.4mb 34f
12:00pm 5 7 mph 1004.4mb 33f
11:40am 5 6 mph 1004.4mb 34f
11:30am 3 6 mph 1004.4mb 34f
11:20am 3 5 mph 1004.4mb 34f
11:10am 2 5 mph 1004.4mb 34f
11:00am 2 5 mph 1004.4mb 34f
10:40am  -  3 mph 1004.4mb 34f
10:30am 2 5 mph 1004.4mb 34f
10:20am 3 5 mph 1004.4mb 34f
10:10am 3 6 mph 1004.4mb 34f
10:00am 5 6 mph 1004.4mb 34f
9:40am 2 3 mph 1004.1mb 34f
9:30am  -  3 mph 1004.1mb 34f
9:20am 2 3 mph 1004.1mb 34f
9:10am 1 3 mph 1003.7mb 34f
9:00am 2 3 mph 1003.7mb 33f
8:40am 1 3 mph 1003.4mb 34f
8:30am  -  3 mph 1003.4mb 33f
8:20am 2 3 mph 1003.4mb 33f
8:10am 2 3 mph 1003mb 33f
8:00am 1 2 mph 1003mb 33f
7:40am  -  mph 1003mb 33f
7:30am  -  mph 1003mb 33f
7:20am  -  mph 1002.7mb 33f
7:10am  -  mph 1002.7mb 33f
7:00am  -  mph 1002.7mb 33f
6:40am  -  1 mph 1002.4mb 33f
6:30am  -  mph 1002.4mb 33f
6:20am  -  1 mph 1002.4mb 34f
6:10am  -  2 mph 1002.4mb 34f
6:00am 1 2 mph 1002.4mb 34f
5:40am 1 2 mph 1002mb 34f
5:30am  -  1 mph 1002mb 33f
5:20am  -  1 mph 1002mb 33f
5:10am  -  mph 1002mb 33f
5:00am  -  mph 1002mb 33f
4:40am  -  mph 1002mb 33f
4:30am  -  mph 1002mb 33f
4:20am  -  mph 1002mb 33f
4:10am  -  mph 1002mb 33f
4:00am  -  1 mph 1002mb 33f
3:40am  -  mph 1002mb 33f
3:30am  -  mph 1002mb 33f
3:20am  -  mph 1001.7mb 33f
3:10am  -  mph 1001.7mb 34f
3:00am  -  mph 1001.7mb 33f
2:40am  -  1 mph 1001.7mb 34f
2:30am  -  1 mph 1001.7mb 34f
2:20am  -  1 mph 1001.7mb 34f
2:10am  -  2 mph 1001.7mb 35f
2:00am 2 5 mph 1001.7mb 34f
1:40am 3 5 mph 1001.4mb 33f
1:30am 2 3 mph 1001.4mb 34f
1:20am  -  5 mph 1001.4mb 35f
1:10am 2 3 mph 1001.4mb 34f
1:00am 3 7 mph 1001.4mb 34f
12:40am 2 3 mph 1001.4mb 34f
12:30am 2 6 mph 1001.4mb 34f
12:20am 3 8 mph 1001.4mb 34f
12:10am 5 7 mph 1001.4mb 34f
12:00am 2 6 mph 1001.4mb 34f
Sat 01/21 11:40pm 3 7 mph 1001.4mb 34f
11:30pm 5 7 mph 1001mb 34f
11:20pm 5 7 mph 1001mb 34f
11:10pm 5 6 mph 1001.4mb 34f
11:00pm 3 5 mph 1001.4mb 34f
10:40pm 2 3 mph 1001.4mb 34f
10:30pm  -  2 mph 1001.4mb 35f
10:20pm  -  mph 1001.4mb 34f
10:10pm  -  2 mph 1001.4mb 34f
10:00pm  -  2 mph 1001.4mb 35f
9:40pm  -  1 mph 1001.4mb 35f
9:30pm  -  mph 1001mb 35f
9:20pm  -  2 mph 1001mb 35f
9:10pm 1 2 mph 1001mb 35f
9:00pm  -  1 mph 1001mb 36f
8:40pm 5 6 mph 1001mb 36f
8:30pm 1 6 mph 1001mb 36f
8:20pm 2 3 mph 1001mb 36f
8:10pm 5 9 mph 1001mb 36f
8:00pm 1 6 mph 1001mb 36f
7:40pm 3 18 mph 1000.3mb 37f
7:30pm 9 18 mph 1000mb 37f
7:20pm 10 20 mph 999.7mb 37f
7:10pm 11 25 mph 999.7mb 36f
7:00pm 13 23 mph 999.7mb 36f
6:40pm 11 23 mph 1000mb 36f
6:30pm 8 17 mph 1000mb 36f
6:20pm 5 9 mph 1000.7mb 35f
6:10pm 2 11 mph 1000.3mb 36f
6:00pm 6 17 mph 1000.3mb 36f
5:40pm 6 20 mph 1000mb 36f
5:30pm 7 11 mph 999.7mb 36f
5:20pm 7 14 mph 999.7mb 35f
5:10pm 6 17 mph 999.7mb 36f
5:00pm 5 17 mph 999.7mb 36f
4:40pm 7 16 mph 999.3mb 36f
4:30pm 8 17 mph 999.3mb 36f
4:20pm 7 17 mph 999.7mb 36f
4:10pm 5 14 mph 999.7mb 35f
4:00pm 3 7 mph 1000mb 35f
3:40pm 5 8 mph 1000mb 35f
3:30pm 5 8 mph 1000mb 35f
3:20pm 2 9 mph 1000mb 35f
3:10pm 3 13 mph 1000mb 36f
3:00pm 7 11 mph 1000.3mb 36f
2:40pm 2 6 mph 1000mb 37f
2:30pm 2 5 mph 1000mb 37f
2:20pm 5 11 mph 999.7mb 37f
2:10pm 5 8 mph 999.7mb 37f
2:00pm 2 5 mph 1000mb 37f
1:40pm 5 8 mph 1000mb 38f
1:30pm 2 11 mph 1000.3mb 38f
1:20pm 5 10 mph 1000.3mb 37f
1:10pm 5 13 mph 1000.7mb 37f
1:00pm 2 8 mph 1001mb 38f
12:50pm 6 13 mph 1001mb 38f
12:40pm 2 7 mph 1001mb 38f
12:30pm 1 6 mph 1001mb 38f
12:20pm 2 8 mph 1001mb 38f
12:10pm 1 7 mph 1001.4mb 38f
12:00pm 5 8 mph 1001mb 38f
11:50am 2 7 mph 1001mb 38f
11:40am 7 10 mph 1001mb 38f
11:30am 3 9 mph 1001.4mb 37f
11:20am 5 9 mph 1001.7mb 36f
11:10am 5 11 mph 1002mb 36f
11:00am 2 9 mph 1002.4mb 36f
10:50am 7 10 mph 1002.4mb 36f
10:40am 3 5 mph 1002.7mb 36f
10:30am 2 8 mph 1002.4mb 36f
10:20am 6 8 mph 1002.4mb 36f
10:10am 3 7 mph 1002.7mb 36f
10:00am 2 9 mph 1002.7mb 36f
9:50am 7 11 mph 1002.4mb 36f
9:40am 6 9 mph 1002.4mb 36f
9:30am 5 11 mph 1002.4mb 36f
9:20am 5 10 mph 1002.4mb 35f
9:10am 7 13 mph 1002.4mb 36f
9:00am 6 13 mph 1002.4mb 36f
8:50am 8 15 mph 1002.4mb 36f
8:40am 7 16 mph 1002.4mb 36f
8:30am 8 14 mph 1002.4mb 36f
8:20am 6 14 mph 1002.4mb 36f
8:10am 8 13 mph 1002.4mb 36f
8:00am 6 13 mph 1002.4mb 36f
7:50am 6 10 mph 1002.4mb 36f
7:40am 6 11 mph 1002.7mb 36f
7:30am 7 10 mph 1002.7mb 36f
7:20am 5 10 mph 1002.7mb 36f
7:10am 6 13 mph 1002.7mb 36f
7:00am 5 10 mph 1003mb 36f
6:50am 6 10 mph 1002.7mb 36f
6:40am 6 9 mph 1002.7mb 36f
6:30am 6 11 mph 1002.7mb 36f
6:20am 3 8 mph 1002.7mb 36f
6:10am 1 7 mph 1002.7mb 36f
6:00am 3 7 mph 1003mb 36f
5:50am 1 6 mph 1003mb 35f
5:40am  -  2 mph 1003mb 34f
5:30am  -  1 mph 1003mb 34f
5:20am  -  1 mph 1003mb 33f
5:10am  -  1 mph 1003mb 34f
5:00am  -  3 mph 1003mb 34f
4:50am  -  2 mph 1003mb 34f
4:40am  -  1 mph 1003mb 34f
4:30am  -  mph 1003mb 34f
4:20am  -  mph 1003mb 34f
4:10am  -  1 mph 1003mb 34f
4:00am  -  1 mph 1003mb 34f
3:50am  -  5 mph 1003.4mb 34f
3:40am  -  7 mph 1003.4mb 35f
3:30am 3 6 mph 1003.4mb 35f
3:20am 2 3 mph 1003.7mb 35f
3:10am 2 5 mph 1004.1mb 36f
3:00am 1 3 mph 1004.1mb 36f
2:50am 2 6 mph 1004.1mb 36f
2:40am 2 6 mph 1004.4mb 36f
2:30am 3 8 mph 1004.4mb 36f
2:20am 1 6 mph 1004.4mb 36f
2:10am 2 8 mph 1004.7mb 36f
2:00am 2 5 mph 1004.7mb 36f
1:50am 2 8 mph 1004.7mb 36f
1:40am 3 8 mph 1004.7mb 35f
1:30am 3 8 mph 1004.7mb 35f
1:20am 5 10 mph 1004.7mb 35f
1:10am 6 10 mph 1004.7mb 35f
1:00am 5 10 mph 1004.7mb 35f
12:50am 5 8 mph 1004.7mb 35f
12:40am 2 7 mph 1004.7mb 34f
12:30am  -  2 mph 1004.7mb 33f
12:20am  -  2 mph 1004.7mb 33f
12:10am  -  5 mph 1004.7mb 33f
12:00am 2 6 mph 1004.7mb 33f
Fri 01/20 11:50pm  -  2 mph 1004.7mb 33f
11:40pm  -  2 mph 1004.7mb 33f
11:30pm 2
mph
1004.7mb 33f
11:20pm 1 6 mph 1004.7mb 33f
11:10pm 3 6 mph 1004.7mb 35f
11:00pm 2 3 mph 1004.7mb 34f
10:50pm 2 3 mph 1004.7mb 33f
10:40pm  -  2 mph 1004.7mb 34f
10:30pm 2
mph
1004.7mb 34f
10:20pm  -  mph 1004.7mb 34f
10:10pm  -  mph 1005.1mb 34f
10:00pm  -  1 mph 1005.1mb 34f
9:50pm  -  3 mph 1005.1mb 34f
9:40pm 1 2 mph 1005.1mb 34f
9:30pm  -  2 mph 1005.1mb 34f
9:20pm  -  5 mph 1005.1mb 34f
9:10pm 3 5 mph 1005.1mb 34f
9:00pm 2 5 mph 1005.4mb 35f
8:50pm 3 6 mph 1005.4mb 35f
8:40pm 3 7 mph 1005.4mb 35f
8:30pm 3 6 mph 1005.4mb 35f
8:20pm 2 5 mph 1005.8mb 35f
8:10pm 2 5 mph 1005.8mb 34f
8:00pm  -  2 mph 1005.8mb 34f
7:50pm 1 2 mph 1005.8mb 34f
7:40pm 2 3 mph 1005.8mb 35f
7:30pm 3
mph
1005.8mb 35f
7:20pm 2 5 mph 1005.8mb 35f
7:10pm 1 3 mph 1005.8mb 35f
7:00pm 2 3 mph 1005.8mb 35f
6:50pm 2 3 mph 1005.8mb 35f
6:40pm 1 3 mph 1005.8mb 34f
6:30pm 2 3 mph 1005.8mb 34f
6:20pm 2 3 mph 1005.8mb 34f
6:10pm 2 3 mph 1005.8mb 34f
6:00pm 1 2 mph 1005.8mb 34f
5:50pm  -  mph 1005.4mb 34f
5:40pm  -  mph 1005.4mb 34f
5:30pm  -  mph 1005.4mb 34f
5:20pm  -  1 mph 1005.4mb 34f
5:10pm 1
mph
1005.4mb 34f
5:00pm  -  mph 1005.1mb 35f
4:50pm  -  2 mph 1005.1mb 35f
4:40pm  -  3 mph 1005.1mb 35f
4:30pm 3 6 mph 1005.1mb 35f
4:20pm 6 8 mph 1005.1mb 35f
4:10pm 5 6 mph 1005.1mb 35f
4:00pm 3
mph
1004.7mb 35f
3:50pm 1 2 mph 1004.7mb 35f
3:40pm 1
mph
1004.7mb 37f
3:30pm  -  1 mph 1004.7mb 37f
3:20pm 2 5 mph 1004.7mb 38f
3:10pm 5
mph
1004.4mb 38f
3:00pm 3 6 mph 1004.4mb 37f
2:50pm 3 7 mph 1004.7mb 38f
2:40pm 5 7 mph 1004.7mb 37f
2:30pm 7 8 mph 1004.7mb 36f
2:20pm 7
mph
1004.4mb 36f
2:10pm 6 7 mph 1004.4mb 37f
2:00pm 2 3 mph 1004.4mb 38f
1:50pm 3
mph
1004.4mb 39f
1:40pm  -  1 mph 1004.4mb 41f
1:30pm  -  2 mph 1004.7mb 39f
1:20pm  -  3 mph 1004.7mb 38f
1:10pm 1 5 mph 1004.7mb 37f
1:00pm 3 5 mph 1005.1mb 37f
12:50pm 3 6 mph 1005.4mb 39f
12:40pm 2 6 mph 1005.4mb 43f
12:30pm 2 5 mph 1005.4mb 43f
12:20pm 1 3 mph 1005.4mb 43f
12:10pm  -  6 mph 1005.4mb 40f
12:00pm 1 5 mph 1005.8mb 37f
11:50am 3 5 mph 1005.8mb 37f
11:40am 3 5 mph 1006.1mb 37f
11:30am 3 5 mph 1006.1mb 36f
11:20am 5 6 mph 1006.4mb 35f
11:10am 5
mph
1006.4mb 34f
11:00am 2 3 mph 1006.8mb 34f
10:50am 2 3 mph 1006.8mb 35f
10:40am  -  1 mph 1007.1mb 38f
10:30am  -  1 mph 1007.1mb 37f
10:20am  -  mph 1007.1mb 34f
10:10am  -  1 mph 1007.1mb 33f
10:00am  -  1 mph 1007.1mb 33f
9:50am  -  3 mph 1007.5mb 31f
9:40am  -  3 mph 1007.5mb 30f
9:30am  -  mph 1007.1mb 31f
9:20am  -  mph 1007.1mb 30f
9:10am  -  mph 1007.1mb 30f
9:00am  -  1 mph 1007.1mb 30f
8:50am  -  2 mph 1007.1mb 29f
7:40am 1 2 mph 1007.1mb 28f
7:30am 2
mph
1007.1mb 28f
7:20am  -  2 mph 1006.8mb 28f
7:10am 1 2 mph 1006.8mb 28f
7:00am 1 2 mph 1006.8mb 28f
6:50am  -  1 mph 1006.8mb 28f
6:40am  -  1 mph 1006.8mb 28f
6:30am 1 2 mph 1006.8mb 28f
6:20am  -  mph 1006.8mb 27f
6:10am  -  1 mph 1006.8mb 27f
6:00am  -  1 mph 1006.8mb 28f
5:50am  -  2 mph 1006.8mb 28f
5:40am 2
mph
1006.8mb 28f
5:30am  -  mph 1006.8mb 28f
5:20am  -  mph 1006.8mb 28f
5:10am  -  2 mph 1006.8mb 29f
5:00am  -  1 mph 1006.8mb 29f
4:50am  -  1 mph 1006.8mb 29f
4:40am  -  5 mph 1006.8mb 31f
4:30am 3 7 mph 1006.8mb 33f
4:20am 3 6 mph 1006.8mb 32f
4:10am 3 6 mph 1006.8mb 31f
4:00am  -  5 mph 1006.8mb 31f
3:50am 3
mph
1006.8mb 31f
3:40am 2 3 mph 1006.8mb 31f
3:30am 2 3 mph 1007.1mb 30f
3:20am 1 2 mph 1007.1mb 29f
3:10am  -  2 mph 1007.1mb 30f
3:00am 1 2 mph 1007.1mb 31f
2:50am 2
mph
1007.1mb 31f
2:40am 2 3 mph 1007.1mb 32f
2:30am 2
mph
1007.1mb 31f
2:20am  -  2 mph 1007.1mb 31f
2:10am  -  3 mph 1007.1mb 33f
2:00am 1 6 mph 1007.1mb 35f
1:50am 3 6 mph 1007.1mb 36f
1:40am 3 6 mph 1007.1mb 35f
1:30am 3 7 mph 1007.5mb 36f
1:20am 3 5 mph 1007.1mb 36f
1:10am 2 5 mph 1007.1mb 37f
1:00am 3 8 mph 1007.1mb 37f
12:50am 5 7 mph 1007.1mb 37f
12:40am 5 8 mph 1007.1mb 38f
12:30am 3 7 mph 1007.1mb 37f
12:20am 3 8 mph 1007.5mb 39f
12:10am 3 10 mph 1007.5mb 39f
12:00am 5 10 mph 1007.5mb 39f
Thu 01/19 11:50pm 6 9 mph 1007.5mb 40f
11:40pm 6 13 mph 1007.5mb 41f
11:30pm 5 8 mph 1007.5mb 41f
11:20pm 5 8 mph 1007.5mb 40f
11:10pm 5 8 mph 1007.8mb 41f
11:00pm 5 13 mph 1007.5mb 43f
10:50pm 6 14 mph 1007.5mb 44f
10:40pm 7 13 mph 1007.8mb 44f
10:30pm 6 11 mph 1008.1mb 43f
10:20pm 7 11 mph 1008.1mb 42f
10:10pm 6 11 mph 1007.8mb 42f
10:00pm 6 15 mph 1008.1mb 42f
9:50pm 6 11 mph 1008.1mb 42f
9:40pm 5 10 mph 1008.5mb 42f
9:30pm 6 14 mph 1008.5mb 42f
9:20pm 7 11 mph 1008.8mb 42f
9:10pm 6 11 mph 1008.8mb 41f
9:00pm 7 14 mph 1008.8mb 41f
8:50pm 7 14 mph 1008.8mb 41f
8:40pm 7 14 mph 1008.8mb 39f
8:30pm 3 7 mph 1008.8mb 38f
8:20pm 3 7 mph 1008.8mb 35f
8:10pm  -  3 mph 1009.1mb 33f
8:00pm 1 5 mph 1008.8mb 33f
7:50pm 3 5 mph 1008.8mb 33f
7:40pm  -  3 mph 1009.1mb 33f
7:30pm 1 5 mph 1009.1mb 35f
7:20pm 2 5 mph 1009.1mb 35f
7:10pm 2 6 mph 1009.1mb 35f
7:00pm  -  8 mph 1009.1mb 37f
6:50pm 5 9 mph 1009.1mb 38f
6:40pm 2 8 mph 1009.1mb 38f
6:30pm 2 5 mph 1009.5mb 37f
6:20pm  -  5 mph 1009.5mb 36f
6:10pm 2 5 mph 1009.5mb 37f
6:00pm 1 3 mph 1009.5mb 35f
5:50pm  -  2 mph 1009.5mb 34f
4:40pm 1 2 mph 1009.1mb 34f
4:30pm  -  mph 1009.1mb 34f
4:20pm  -  6 mph 1009.1mb 34f
4:10pm 6 7 mph 1009.1mb 35f
4:00pm 7 8 mph 1009.1mb 36f
3:50pm 5 6 mph 1009.1mb 42f
3:40pm 2 3 mph 1009.1mb 42f
3:30pm 2 5 mph 1009.1mb 42f
3:20pm 2 5 mph 1009.1mb 43f
3:10pm 3 6 mph 1008.8mb 42f
3:00pm  -  6 mph 1008.8mb 42f
2:50pm 2 8 mph 1009.1mb 41f
2:40pm 2 9 mph 1009.1mb 41f
2:30pm 6 9 mph 1009.1mb 41f
2:20pm  -  8 mph 1009.1mb 41f
2:10pm 6 10 mph 1009.1mb 40f
2:00pm 2 6 mph 1009.5mb 40f
1:50pm 2 6 mph 1009.5mb 39f
1:40pm 3 8 mph 1009.5mb 38f
1:30pm 2 8 mph 1009.5mb 39f
1:20pm 2 5 mph 1009.5mb 39f
1:10pm 1 7 mph 1009.5mb 38f
1:00pm 5 8 mph 1009.8mb 37f
12:50pm  -  9 mph 1009.8mb 37f
12:40pm 7 9 mph 1009.8mb 37f
12:30pm 5 7 mph 1010.2mb 37f
12:20pm 2 6 mph 1010.2mb 36f
12:10pm 2 5 mph 1010.2mb 35f
12:00pm 2 5 mph 1010.5mb 35f
11:50am 5 6 mph 1010.8mb 35f
11:40am 2 5 mph 1010.8mb 35f
11:30am 1 3 mph 1010.8mb 34f
11:20am 2 5 mph 1011.2mb 34f
11:10am  -  1 mph 1011.2mb 34f
11:00am  -  3 mph 1011.5mb 33f
10:50am 1 2 mph 1011.5mb 34f
10:40am 2 3 mph 1011.2mb 37f
10:30am  -  2 mph 1011.5mb 36f
10:20am  -  3 mph 1011.5mb 32f
10:10am 2 3 mph 1011.2mb 31f
10:00am 3 5 mph 1011.2mb 30f
9:50am 2
mph
1011.2mb 30f
9:40am  -  mph 1011.2mb 32f
9:30am  -  1 mph 1010.8mb 30f
9:20am  -  1 mph 1010.8mb 32f
9:10am  -  1 mph 1010.8mb 30f
9:00am  -  1 mph 1011.2mb 28f
8:50am  -  mph 1011.5mb 27f
8:40am  -  2 mph 1011.5mb 25f
8:30am 1 3 mph 1011.5mb 25f
8:20am  -  1 mph 1011.5mb 25f
8:10am 1 5 mph 1011.9mb 26f
8:00am  -  1 mph 1011.5mb 25f
7:50am  -  1 mph 1011.9mb 25f
7:40am  -  1 mph 1011.5mb 26f
7:30am  -  3 mph 1011.5mb 25f
7:20am 2 6 mph 1011.5mb 27f
7:10am 3 7 mph 1011.2mb 29f
7:00am 3 6 mph 1011.2mb 28f
6:50am 3 5 mph 1011.5mb 26f
6:40am  -  3 mph 1011.5mb 25f
6:30am  -  5 mph 1011.5mb 27f
6:20am 2 5 mph 1011.2mb 26f
6:10am  -  2 mph 1011.2mb 25f
6:00am  -  1 mph 1011.2mb 24f
5:50am  -  1 mph 1011.2mb 25f
5:40am  -  1 mph 1011.2mb 26f
5:30am  -  1 mph 1011.2mb 26f
5:20am  -  2 mph 1010.8mb 26f
5:10am  -  2 mph 1010.8mb 26f
5:00am 1 2 mph 1010.8mb 26f
4:50am  -  2 mph 1010.8mb 26f
4:40am 2 3 mph 1011.2mb 26f
4:30am  -  2 mph 1011.2mb 25f
4:20am  -  2 mph 1011.2mb 26f
4:10am 2 3 mph 1011.2mb 26f
4:00am 1 3 mph 1011.2mb 26f
3:50am 2 3 mph 1011.5mb 27f
3:40am 3 5 mph 1011.5mb 28f
3:30am 2 5 mph 1011.5mb 28f
3:20am 3 6 mph 1011.5mb 30f
3:10am 3 7 mph 1011.5mb 30f
3:00am 5 7 mph 1011.5mb 29f
2:50am 3 7 mph 1011.5mb 29f
2:40am 3 6 mph 1011.5mb 29f
2:30am 3 6 mph 1011.5mb 30f
2:20am 3 6 mph 1011.5mb 30f
2:10am 3 7 mph 1011.5mb 30f
2:00am 5 7 mph 1011.5mb 31f
1:50am 3 6 mph 1011.2mb 30f
1:40am 3 6 mph 1011.2mb 30f
1:30am 3 7 mph 1011.2mb 31f
1:20am 3 6 mph 1011.2mb 30f
1:10am 3 5 mph 1011.2mb 30f
1:00am 3 6 mph 1011.2mb 30f
12:50am 2 6 mph 1011.2mb 31f
12:40am 3 7 mph 1011.2mb 31f
12:30am 3 7 mph 1011.2mb 30f
12:20am 3 7 mph 1011.2mb 30f
12:10am 3 6 mph 1010.8mb 30f
12:00am 3 7 mph 1011.2mb 30f
Wed 01/18 11:50pm 5 7 mph 1011.2mb 30f
11:40pm 3 6 mph 1011.2mb 30f
11:30pm 3 6 mph 1011.2mb 30f
11:20pm 5 7 mph 1011.2mb 30f
11:10pm 3 5 mph 1011.2mb 30f
11:00pm 3 6 mph 1011.2mb 31f
10:40pm 3 6 mph 1011.2mb 30f
10:30pm 3 7 mph 1011.2mb 30f
10:20pm 3 6 mph 1011.2mb 30f
10:10pm 2 7 mph 1011.2mb 29f
10:00pm 5 8 mph 1011.2mb 30f
9:50pm 3 6 mph 1011.2mb 29f
9:40pm 3 5 mph 1011.2mb 29f
9:30pm 3 6 mph 1011.2mb 29f
9:20pm 3 6 mph 1011.2mb 29f
9:10pm 3 5 mph 1011.2mb 29f
9:00pm 3 6 mph 1011.2mb 30f
8:50pm 3 6 mph 1011.2mb 29f
8:40pm 3 5 mph 1011.2mb 29f
8:30pm 3 5 mph 1011.2mb 29f
8:20pm 3 5 mph 1011.2mb 29f
8:10pm 3 6 mph 1011.2mb 29f
8:00pm 3 5 mph 1010.8mb 29f
7:50pm 3
mph
1010.8mb 29f
7:40pm 3
mph
1010.8mb 29f
7:30pm 2 3 mph 1010.8mb 29f
7:20pm 2 3 mph 1010.8mb 29f